KC4JES Weather Reports


time (UTC)temp
C
wind
direction
speed
KPH
gust
KPH
rain 1hr
cm
rain 24hr
cm
rain mn
cm
humidity
%
barometer
mb
20260510122747 22 217 0.0 0.0 0.00 0.00 0.00 99 1016.1
20260510122244 22 256 0.0 1.6 0.00 0.00 0.00 99 1016.4
20260510121740 22 248 0.0 1.6 0.00 0.00 0.00 99 1016.3
20260510121238 22 242 0.0 0.0 0.00 0.00 0.00 99 1016.3
20260510120735 22 217 0.0 0.0 0.00 0.00 0.00 99 1016.1
20260510120232 22 217 0.0 0.0 0.00 0.00 0.00 99 1016.1
20260510115727 21 217 0.0 0.0 0.00 0.00 0.00 99 1016.1
20260510115226 21 217 0.0 0.0 0.00 0.00 0.00 99 1015.7
20260510114721 21 217 0.0 0.0 0.00 0.00 0.00 99 1015.9
20260510114218 21 217 0.0 0.0 0.00 0.00 0.00 99 1016.0
20260510113713 21 217 0.0 0.0 0.00 0.00 0.00 99 1015.7
20260510113210 21 217 0.0 0.0 0.00 0.00 0.00 99 1015.7
20260510112706 21 217 0.0 0.0 0.00 0.00 0.00 99 1015.7
20260510112204 21 217 0.0 0.0 0.00 0.00 0.00 99 1015.8
20260510111700 21 343 0.0 0.0 0.00 0.00 0.00 99 1015.3
20260510111157 21 343 0.0 0.0 0.00 0.00 0.00 99 1015.6
20260510110656 21 343 0.0 0.0 0.00 0.00 0.00 99 1015.6
20260510110154 21 343 0.0 0.0 0.00 0.00 0.00 99 1015.6
20260510105649 21 343 0.0 0.0 0.00 0.00 0.00 99 1015.3
20260510105149 21 343 0.0 0.0 0.00 0.00 0.00 99 1015.4
20260510104647 21 343 0.0 0.0 0.00 0.00 0.00 99 1015.3
20260510104143 21 343 0.0 0.0 0.00 0.00 0.00 99 1015.3
20260510103640 21 343 0.0 0.0 0.00 0.00 0.00 99 1015.3
20260510103137 21 343 0.0 0.0 0.00 0.00 0.00 99 1015.0
20260510102632 21 343 0.0 0.0 0.00 0.00 0.00 99 1015.3
20260510102128 21 330 0.0 0.0 0.00 0.00 0.00 99 1015.2
20260510101626 21 322 0.0 0.0 0.00 0.00 0.00 99 1015.1
20260510101124 21 307 0.0 0.0 0.00 0.00 0.00 99 1015.1
20260510100620 21 218 0.0 0.0 0.00 0.00 0.00 99 1015.0
20260510100117 21 218 0.0 0.0 0.00 0.00 0.00 99 1014.7
20260510095613 21 218 0.0 0.0 0.00 0.00 0.00 99 1014.6
20260510095113 21 218 0.0 0.0 0.00 0.00 0.00 99 1014.5
20260510094612 21 218 0.0 0.0 0.00 0.00 0.00 99 1014.7
20260510094108 21 218 0.0 0.0 0.00 0.00 0.00 99 1014.7
20260510093604 21 218 0.0 0.0 0.00 0.00 0.00 99 1014.7
20260510093101 21 218 0.0 1.6 0.00 0.00 0.00 99 1014.6
20260510092558 21 269 0.0 0.0 0.00 0.00 0.00 99 1014.5
20260510092057 21 230 0.0 0.0 0.00 0.00 0.00 99 1014.4
20260510091555 21 310 0.0 1.6 0.00 0.00 0.00 99 1014.1
20260510091051 21 230 0.0 0.0 0.00 0.00 0.00 99 1014.3
20260510090548 21 230 0.0 0.0 0.00 0.00 0.00 99 1014.2
20260510090043 21 230 0.0 0.0 0.00 0.00 0.00 99 1014.2
20260510085538 21 230 0.0 0.0 0.00 0.00 0.00 99 1014.4
20260510085035 21 230 0.0 0.0 0.00 0.00 0.00 99 1013.9
20260510084531 21 230 0.0 0.0 0.00 0.00 0.00 99 1014.2
20260510084028 21 230 0.0 0.0 0.00 0.00 0.00 99 1014.2
20260510083525 21 246 0.0 0.0 0.00 0.00 0.00 99 1014.2
20260510083021 21 322 0.0 0.0 0.00 0.00 0.00 99 1014.0
20260510082518 21 322 0.0 0.0 0.00 0.00 0.00 99 1014.3
20260510082019 21 322 0.0 0.0 0.00 0.00 0.00 99 1014.1
20260510081514 21 309 0.0 0.0 0.00 0.00 0.00 99 1014.1
20260510081010 21 230 0.0 0.0 0.00 0.00 0.00 99 1013.9
20260510080509 21 230 0.0 0.0 0.00 0.00 0.00 99 1013.9
20260510080006 21 230 0.0 0.0 0.00 0.00 0.00 99 1013.9
20260510075503 21 230 0.0 0.0 0.00 0.00 0.00 99 1013.9
20260510075000 21 230 0.0 0.0 0.00 0.00 0.00 99 1013.9
20260510074458 21 230 0.0 0.0 0.00 0.00 0.00 99 1013.5
20260510073953 21 230 0.0 0.0 0.00 0.00 0.00 99 1013.8
20260510073449 21 244 0.0 0.0 0.00 0.00 0.00 99 1013.8
20260510072946 21 322 0.0 0.0 0.00 0.00 0.00 99 1013.3
20260510072443 21 322 0.0 0.0 0.00 0.00 0.00 99 1013.4
20260510071938 21 322 0.0 0.0 0.00 0.00 0.00 99 1013.7
20260510071435 21 322 0.0 0.0 0.00 0.00 0.00 99 1013.7
20260510070933 21 322 0.0 0.0 0.00 0.00 0.00 99 1013.5
20260510070430 21 322 0.0 0.0 0.00 0.00 0.00 99 1013.5
20260510065925 21 217 0.0 0.0 0.00 0.00 0.00 99 1013.8
20260510065422 21 217 0.0 0.0 0.00 0.00 0.00 99 1013.6
20260510064918 21 217 0.0 0.0 0.00 0.00 0.00 99 1013.8
20260510064416 21 217 0.0 0.0 0.00 0.00 0.00 99 1014.0
20260510063913 21 142 0.0 0.0 0.00 0.00 0.00 99 1013.9
20260510063409 21 142 0.0 0.0 0.00 0.00 0.00 99 1014.1
20260510062907 21 49 0.0 0.0 0.00 0.00 0.00 99 1014.1
20260510062401 21 310 0.0 0.0 0.00 0.00 0.00 99 1014.2
20260510061857 21 230 0.0 0.0 0.00 0.00 0.00 99 1014.0
20260510061354 21 230 0.0 0.0 0.00 0.00 0.00 99 1014.4
20260510060850 21 230 0.0 0.0 0.00 0.00 0.00 99 1014.4
20260510060347 21 230 0.0 1.6 0.00 0.00 0.00 99 1014.7
20260510055844 21 269 0.0 0.0 0.00 0.00 0.00 99 1014.6
20260510055343 21 304 0.0 0.0 0.00 0.00 0.00 99 1014.7
20260510054842 21 230 0.0 0.0 0.00 0.00 0.00 99 1014.8
20260510054338 21 230 0.0 0.0 0.00 0.00 0.00 99 1014.9
20260510053833 21 230 0.0 0.0 0.00 0.00 0.00 99 1014.9
20260510053329 21 230 0.0 0.0 0.00 0.00 0.00 99 1014.9
20260510052825 21 230 0.0 0.0 0.00 0.00 0.00 99 1015.1
20260510052321 21 242 0.0 0.0 0.00 0.00 0.00 99 1015.0
20260510051818 21 235 0.0 0.0 0.00 0.00 0.00 99 1015.1
20260510051314 21 235 0.0 0.0 0.00 0.00 0.00 99 1015.3
20260510050812 21 230 0.0 0.0 0.00 0.00 0.00 99 1015.4
20260510050308 21 230 0.0 0.0 0.00 0.00 0.00 99 1015.5
20260510045805 21 230 0.0 0.0 0.00 0.00 0.00 99 1015.6
20260510045305 21 242 0.0 0.0 0.00 0.00 0.00 98 1015.4
20260510044759 21 242 0.0 0.0 0.00 0.00 0.00 98 1015.4
20260510044256 21 242 0.0 0.0 0.00 0.00 0.00 98 1015.2
20260510043752 21 242 0.0 0.0 0.00 0.00 0.00 98 1015.4
20260510043248 21 217 0.0 0.0 0.00 0.00 0.00 98 1015.4
20260510042746 21 242 0.0 0.0 0.00 0.00 0.00 98 1015.7
20260510042241 21 242 0.0 0.0 0.00 0.00 0.00 98 1015.5
20260510041738 21 225 0.0 0.0 0.00 0.00 0.00 98 1015.6
20260510041236 21 230 0.0 0.0 0.00 0.00 0.00 98 1015.5
20260510040733 22 37 0.0 0.0 0.00 0.00 0.00 98 1015.3
20260510040230 22 37 0.0 0.0 0.00 0.00 0.00 98 1015.4
20260510035725 22 309 0.0 0.0 0.00 0.64 0.64 98 1015.3
20260510035221 22 37 0.0 0.0 0.00 0.64 0.64 98 1015.4
20260510034717 22 245 0.0 1.6 0.00 0.64 0.64 98 1015.7
20260510034215 22 309 0.0 0.0 0.00 0.64 0.64 98 1015.3
20260510033711 22 309 0.0 0.0 0.00 0.64 0.64 98 1015.4
20260510033209 22 309 0.0 0.0 0.00 0.64 0.64 98 1015.4
20260510032705 22 11 0.0 0.0 0.00 0.64 0.64 98 1015.6
20260510032201 22 240 0.0 0.0 0.00 0.64 0.64 98 1015.4
20260510031655 22 309 0.0 0.0 0.00 0.64 0.64 98 1015.6
20260510031153 22 315 0.0 0.0 0.00 0.64 0.64 98 1015.6
20260510030652 22 269 0.0 1.6 0.00 0.64 0.64 98 1015.6
20260510030150 22 246 0.0 0.0 0.00 0.64 0.64 98 1015.5
20260510025647 22 237 0.0 0.0 0.00 0.64 0.64 98 1015.4
20260510025144 22 249 1.6 3.2 0.00 0.64 0.64 98 1015.3
20260510024641 22 269 0.0 0.0 0.00 0.64 0.64 98 1015.2
20260510024138 22 273 1.6 1.6 0.00 0.64 0.64 98 1015.1
20260510023633 22 322 0.0 0.0 0.00 0.64 0.64 98 1015.1
20260510023131 22 343 0.0 0.0 0.00 0.64 0.64 98 1014.8
20260510022631 22 343 0.0 0.0 0.00 0.64 0.64 98 1014.9
20260510022126 22 330 0.0 1.6 0.00 0.64 0.64 98 1015.2
20260510021622 22 286 0.0 3.2 0.00 0.64 0.64 98 1015.0
20260510021120 22 44 0.0 0.0 0.00 0.64 0.64 98 1014.6
20260510020619 22 44 0.0 0.0 0.00 0.64 0.64 98 1014.6
20260510020115 22 44 0.0 0.0 0.00 0.64 0.64 98 1014.5
20260510015612 22 32 0.0 0.0 0.00 0.64 0.64 98 1014.4
20260510015108 22 13 0.0 0.0 0.00 0.64 0.64 98 1014.4
20260510014603 22 256 0.0 0.0 0.00 0.64 0.64 98 1014.4
20260510014102 22 256 0.0 0.0 0.00 0.64 0.64 98 1014.5
20260510013556 22 44 0.0 1.6 0.00 0.64 0.64 98 1014.1
20260510013052 22 202 0.0 0.0 0.00 0.64 0.64 98 1014.7
20260510012551 22 322 0.0 0.0 0.00 0.64 0.64 98 1014.1
20260510012048 22 246 0.0 0.0 0.00 0.64 0.64 98 1014.1
20260510011547 22 246 0.0 0.0 0.00 0.64 0.64 98 1014.0
20260510011044 22 217 0.0 0.0 0.00 0.64 0.64 98 1014.0
20260510010540 22 32 0.0 0.0 0.00 0.64 0.64 98 1014.1
20260510010037 22 336 0.0 0.0 0.00 0.64 0.64 98 1013.9
20260510005533 22 124 0.0 0.0 0.00 0.64 0.64 98 1013.8
20260510005031 22 129 0.0 0.0 0.00 0.64 0.64 98 1014.0
20260510004528 22 315 0.0 0.0 0.00 0.64 0.64 97 1014.2
20260510004026 22 315 0.0 0.0 0.00 0.64 0.64 97 1014.3
20260510003523 22 333 0.0 1.6 0.00 0.64 0.64 97 1014.3
20260510003018 22 235 0.0 1.6 0.00 0.64 0.64 97 1014.3
20260510002514 22 246 0.0 3.2 0.00 0.64 0.64 97 1014.2
20260510002011 22 0 0.0 0.0 0.00 0.64 0.64 97 1014.2
20260510001508 22 251 0.0 1.6 0.00 0.64 0.64 97 1014.3
20260510001006 22 327 0.0 0.0 0.00 0.64 0.64 97 1013.9
20260510000501 22 6 0.0 1.6 0.00 0.64 0.64 97 1013.9
20260509235958 22 297 0.0 0.0 0.00 0.64 0.64 97 1014.1
20260509235455 22 326 0.0 0.0 0.00 0.64 0.64 97 1013.8
20260509234951 22 336 0.0 0.0 0.00 0.64 0.64 97 1013.9
20260509234448 22 239 0.0 1.6 0.00 0.64 0.64 97 1013.9
20260509233946 22 242 0.0 1.6 0.00 0.64 0.64 96 1013.9
20260509233443 22 235 0.0 0.0 0.05 0.64 0.64 96 1013.8
20260509232939 22 340 1.6 1.6 0.00 0.64 0.64 96 1013.9
20260509232437 22 230 0.0 1.6 0.00 0.64 0.64 96 1013.9
20260509231932 22 293 0.0 3.2 0.00 0.64 0.64 96 1013.6
20260509231429 22 315 0.0 1.6 0.00 0.64 0.64 96 1013.8
20260509230928 22 296 0.0 1.6 0.00 0.64 0.64 96 1013.7
20260509230424 22 322 0.0 0.0 0.00 0.64 0.64 95 1013.8
20260509225920 22 260 1.6 1.6 0.00 0.64 0.64 96 1014.0
20260509225417 23 317 0.0 3.2 0.00 0.64 0.64 96 1013.7
20260509224913 23 10 0.0 3.2 0.00 0.64 0.64 96 1013.8
20260509224414 23 322 0.0 0.0 0.00 0.64 0.64 97 1013.7
20260509223911 23 282 0.0 0.0 0.00 0.64 0.64 97 1013.7
20260509223408 23 282 0.0 0.0 0.00 0.64 0.64 97 1013.8
20260509222905 23 282 0.0 0.0 0.00 0.64 0.64 97 1013.9
20260509222400 23 282 0.0 0.0 0.00 0.64 0.64 96 1013.8
20260509221855 23 333 0.0 0.0 0.05 0.64 0.64 96 1013.7
20260509221353 23 333 0.0 0.0 0.05 0.64 0.64 96 1013.7
20260509220849 23 333 0.0 0.0 0.00 0.61 0.61 96 1013.6
20260509220345 23 242 0.0 0.0 0.00 0.61 0.61 96 1013.7
20260509215840 23 242 0.0 0.0 0.00 0.61 0.61 96 1013.7
20260509215337 23 242 0.0 1.6 0.00 0.61 0.61 96 1013.6
20260509214835 23 255 0.0 0.0 0.00 0.61 0.61 96 1013.6
20260509214332 23 60 0.0 0.0 0.00 0.61 0.61 96 1013.6
20260509213829 23 25 0.0 0.0 0.00 0.61 0.61 96 1013.6
20260509213324 23 255 0.0 0.0 0.00 0.61 0.61 96 1013.6
20260509212822 23 89 0.0 0.0 0.00 0.61 0.61 96 1013.7
20260509212320 23 25 0.0 0.0 0.00 0.61 0.61 96 1013.8
20260509211815 23 321 0.0 0.0 0.00 0.61 0.61 96 1014.0
20260509211311 23 269 0.0 0.0 0.00 0.61 0.61 95 1013.8
20260509210808 23 250 0.0 1.6 0.00 0.61 0.61 95 1013.7
20260509210306 23 252 0.0 1.6 0.00 0.61 0.61 95 1013.9
20260509205805 23 251 0.0 3.2 0.00 0.61 0.61 95 1013.6
20260509205300 23 243 0.0 0.0 0.00 0.61 0.61 94 1013.4
20260509204756 23 243 0.0 0.0 0.00 0.61 0.61 93 1013.4
20260509204252 24 315 0.0 0.0 0.05 0.61 0.61 92 1013.2
20260509203749 24 315 0.0 0.0 0.71 0.61 0.61 92 1013.5
20260509203247 25 23 0.0 1.6 1.45 0.58 0.58 91 1013.6
20260509202742 25 256 0.0 3.2 0.97 0.48 0.48 90 1013.7
20260509202238 25 245 0.0 1.6 0.00 0.33 0.33 89 1013.4
20260509201733 25 235 0.0 0.0 0.00 0.33 0.33 88 1013.3
20260509201230 25 235 0.0 3.2 0.00 0.33 0.33 88 1013.6
20260509200726 25 50 0.0 0.0 0.00 0.33 0.33 88 1013.6
20260509200221 26 50 0.0 0.0 0.00 0.33 0.33 87 1013.6
20260509195717 26 13 0.0 0.0 0.00 0.33 0.33 88 1013.3
20260509195213 26 309 0.0 0.0 0.00 0.33 0.33 88 1013.3
20260509194713 26 50 0.0 1.6 0.00 0.33 0.33 87 1013.3
20260509194210 26 75 0.0 0.0 0.00 0.33 0.33 88 1013.5
20260509193706 26 25 0.0 3.2 0.00 0.33 0.33 87 1013.2
20260509193206 25 29 0.0 3.2 0.00 0.33 0.33 87 1013.3
20260509192703 25 41 1.6 3.2 0.00 0.33 0.33 87 1013.7
20260509192158 25 62 0.0 0.0 0.00 0.33 0.33 88 1013.4
20260509191654 25 202 0.0 3.2 0.00 0.33 0.33 88 1013.2
20260509191150 25 35 1.6 3.2 0.00 0.33 0.33 87 1013.3
20260509190646 25 309 0.0 3.2 0.00 0.33 0.33 87 1012.9
20260509190144 25 322 0.0 1.6 0.00 0.33 0.33 86 1013.4
20260509185642 25 31 1.6 3.2 0.00 0.33 0.33 85 1013.4
20260509185137 26 44 0.0 1.6 0.00 0.33 0.33 85 1013.3
20260509184635 26 6 0.0 1.6 0.00 0.33 0.33 83 1013.2
20260509184132 26 61 1.6 1.6 0.00 0.33 0.33 80 1013.6
20260509183628 27 297 0.0 0.0 0.00 0.33 0.33 76 1013.7
20260509183123 27 304 0.0 0.0 0.00 0.33 0.33 78 1013.5
20260509182619 27 265 1.6 3.2 0.00 0.33 0.33 76 1013.6
20260509182117 27 266 0.0 3.2 0.00 0.33 0.33 75 1013.8
20260509181615 27 61 0.0 3.2 0.00 0.33 0.33 73 1013.7
20260509181112 27 269 0.0 1.6 0.00 0.33 0.33 77 1013.6
20260509180608 27 272 0.0 3.2 0.00 0.33 0.33 75 1013.8
20260509180105 28 269 1.6 3.2 0.00 0.33 0.33 74 1013.7
20260509175600 28 297 1.6 3.2 0.00 0.33 0.33 74 1013.8
20260509175058 28 322 0.0 3.2 0.00 0.33 0.33 74 1013.8
20260509174554 28 299 0.0 1.6 0.00 0.33 0.33 76 1013.8
20260509174049 27 266 1.6 3.2 0.00 0.33 0.33 78 1013.9
20260509173549 27 42 0.0 0.0 0.00 0.33 0.33 77 1013.9
20260509173046 27 315 0.0 0.0 0.00 0.33 0.33 77 1013.9
20260509172543 27 304 0.0 1.6 0.00 0.33 0.33 78 1013.9
20260509172039 27 37 0.0 1.6 0.00 0.33 0.33 77 1014.0
20260509171535 27 269 0.0 3.2 0.00 0.33 0.33 80 1014.0
20260509171031 26 322 0.0 0.0 0.00 0.33 0.33 80 1014.0
20260509170527 26 348 0.0 1.6 0.00 0.33 0.33 78 1014.4
20260509170023 27 261 3.2 3.2 0.00 0.33 0.33 80 1014.3
20260509165522 27 264 0.0 1.6 0.00 0.33 0.33 78 1014.2
20260509165018 27 242 0.0 3.2 0.00 0.33 0.33 80 1014.3
20260509164514 27 269 0.0 3.2 0.00 0.33 0.33 79 1014.2
20260509164009 27 263 1.6 1.6 0.00 0.33 0.33 79 1014.2
20260509163508 27 22 0.0 0.0 0.00 0.33 0.33 81 1013.9
20260509163008 26 309 0.0 0.0 0.00 0.33 0.33 82 1014.2
20260509162506 26 15 0.0 0.0 0.00 0.33 0.33 81 1014.2
20260509162001 26 333 0.0 0.0 0.00 0.33 0.33 81 1014.4
20260509161458 26 269 0.0 1.6 0.00 0.33 0.33 81 1014.6
20260509160953 26 269 0.0 3.2 0.00 0.33 0.33 80 1014.7
20260509160449 26 265 3.2 3.2 0.00 0.33 0.33 80 1014.1
20260509155944 26 233 0.0 6.4 0.00 0.33 0.33 80 1014.7
20260509155441 26 292 1.6 4.8 0.00 0.33 0.33 81 1014.5
20260509154938 26 257 0.0 1.6 0.00 0.33 0.33 80 1014.6
20260509154434 26 299 0.0 1.6 0.00 0.33 0.33 80 1014.3
20260509153931 26 322 0.0 3.2 0.00 0.33 0.33 81 1014.4
20260509153428 26 273 1.6 3.2 0.00 0.33 0.33 82 1014.4
20260509152925 26 333 0.0 0.0 0.00 0.33 0.33 82 1014.3
20260509152421 26 309 0.0 0.0 0.00 0.33 0.33 83 1014.4
20260509151918 26 333 0.0 0.0 0.00 0.33 0.33 83 1014.1
20260509151414 26 269 0.0 3.2 0.00 0.33 0.33 81 1014.3
20260509150912 26 275 1.6 3.2 0.00 0.33 0.33 83 1014.5
20260509150410 26 333 0.0 0.0 0.00 0.33 0.33 83 1014.6
20260509145908 26 261 1.6 1.6 0.00 0.33 0.33 84 1014.5
20260509145407 25 249 1.6 3.2 0.00 0.33 0.33 84 1014.5
20260509144903 25 224 0.0 4.8 0.00 0.33 0.33 85 1014.4
20260509144400 25 319 0.0 0.0 0.00 0.33 0.33 84 1014.4
20260509143857 25 35 0.0 1.6 0.00 0.33 0.33 86 1014.4
20260509143355 26 298 1.6 1.6 0.00 0.33 0.33 85 1014.3
20260509142851 25 340 1.6 1.6 0.00 0.33 0.33 86 1014.6
20260509142348 25 322 0.0 3.2 0.00 0.33 0.33 87 1014.6
20260509141843 25 293 0.0 3.2 0.00 0.33 0.33 86 1014.4
20260509141341 25 256 0.0 1.6 0.05 0.33 0.33 87 1014.4
20260509140837 25 326 0.0 1.6 0.05 0.33 0.33 86 1014.6
20260509140334 25 230 0.0 1.6 0.00 0.30 0.30 88 1014.5
20260509135832 25 255 0.0 1.6 0.00 0.30 0.30 89 1014.5
20260509135329 25 264 3.2 4.8 0.00 0.30 0.30 87 1014.4
20260509134826 25 249 1.6 3.2 0.00 0.30 0.30 87 1014.3
20260509134324 25 226 1.6 6.4 0.00 0.30 0.30 87 1014.1
20260509133820 25 267 3.2 3.2 0.00 0.30 0.30 88 1014.0
20260509133317 25 269 3.2 3.2 0.00 0.30 0.30 89 1013.9
20260509132816 25 269 0.0 3.2 0.00 0.30 0.30 89 1013.6
20260509132314 24 267 1.6 4.8 0.00 0.30 0.30 89 1013.8
20260509131810 24 295 0.0 3.2 0.00 0.30 0.30 90 1013.8
20260509131307 24 322 0.0 1.6 0.00 0.30 0.30 90 1013.8
20260509130803 24 217 0.0 1.6 0.00 0.30 0.30 91 1013.8
20260509130259 23 285 1.6 1.6 0.00 0.30 0.30 91 1013.7
20260509125756 23 330 1.6 3.2 0.00 0.30 0.30 91 1013.8
20260509125253 23 233 1.6 3.2 0.00 0.30 0.30 92 1013.8
20260509124749 23 274 3.2 3.2 0.00 0.30 0.30 94 1013.5
20260509124245 23 261 3.2 3.2 0.00 0.30 0.30 94 1013.4
20260509123744 23 282 0.0 3.2 0.00 0.30 0.30 94 1013.5
20260509123241 22 285 1.6 4.8 0.00 0.30 0.30 95 1013.6